Weather History for Zephyrhills, FL

Change the Weather History Date:

Tuesday, December 4, 2012

  Actual Average (KPCM) Record (KPCM)
Temperature  
Mean Temperature 63 °F -  
Max Temperature 78 °F 76 °F 87 °F (1978)
Min Temperature 48 °F 50 °F 30 °F (1989)
Degree Days  
Heating Degree Days 2    
Growing Degree Days 13 (Base 50)    
Moisture  
Dew Point 52 °F    
Average Humidity 73    
Maximum Humidity 100    
Minimum Humidity 30    
Precipitation  
Precipitation 0.00 in - - ()
Sea Level Pressure  
Sea Level Pressure 30.25 in    
Wind  
Wind Speed 1 mph ()    
Max Wind Speed 12 mph    
Max Gust Speed 18 mph    
Visibility 8.1 miles    
Events Fog    
Averages and records for this station are not official NWS values.
T = Trace of Precipitation, MM = Missing Value Source: Averaged Metar Reports

Daily Weather History Graph

Daily Weather History Graph

Search for Another Location

Airport:

Trip Planner

Search our weather history database for the weather conditions in past years. The results will help you decide how hot, cold, wet, or windy it might be!

Date:

Astronomy

Dec. 04, 2012 Rise Set
Actual Time 7:05 AM EST 5:32 PM EST
Civil Twilight 6:40 AM EST 5:57 PM EST
Nautical Twilight 6:11 AM EST 6:27 PM EST
Astronomical Twilight 5:42 AM EST 6:55 PM EST
Moon 10:59 PM EST (12/4) 11:15 AM EST (12/4)
Length of Visible Light 11h 17m
Length of Day
10h 26m
Waning Gibbous, 69% of the Moon is Illuminated
Dec 4
Waning Gibbous
Dec 6
Last Quarter
Dec 13
New
Dec 20
First Quarter
Dec 28
Full

Hourly Weather History & Observations

Time (EST) Temp. Dew Point Humidity Pressure Visibility Wind Dir Wind Speed Gust Speed Precip Events Conditions
12:15 AM 55.4 °F 55.4 °F 100% 30.27 in 10.0 mi Calm Calm - N/A   Clear
12:35 AM 53.6 °F 53.6 °F 100% 30.26 in 10.0 mi Calm Calm - N/A   Clear
12:55 AM 53.6 °F 53.6 °F 100% 30.26 in 10.0 mi Calm Calm - N/A   Clear
1:15 AM 53.6 °F 53.6 °F 100% 30.26 in 10.0 mi Calm Calm - N/A   Clear
1:35 AM 53.6 °F 53.6 °F 100% 30.26 in 1.0 mi Calm Calm - N/A   Mist
1:55 AM 51.8 °F 51.8 °F 100% 30.26 in 7.0 mi Calm Calm - N/A   Clear
2:15 AM 50.0 °F 50.0 °F 100% 30.26 in 10.0 mi Calm Calm - N/A   Clear
2:35 AM 53.6 °F 53.6 °F 100% 30.26 in 1.5 mi Calm Calm - N/A   Mist
2:55 AM 51.8 °F 51.8 °F 100% 30.25 in 1.8 mi Calm Calm - N/A   Mist
3:15 AM 51.8 °F 51.8 °F 100% 30.25 in 1.0 mi Calm Calm - N/A   Mist
3:55 AM 51.8 °F 51.8 °F 100% 30.25 in 0.2 mi Calm Calm - N/A Fog Fog
4:15 AM 51.8 °F 51.8 °F 100% 30.25 in 1.5 mi Calm Calm - N/A   Mist
4:35 AM 50.0 °F 50.0 °F 100% 30.25 in 0.8 mi Calm Calm - N/A   Mist
4:55 AM 51.8 °F 51.8 °F 100% 30.25 in 7.0 mi Calm Calm - N/A   Clear
5:15 AM 53.6 °F 53.6 °F 100% 30.25 in 5.0 mi Calm Calm - N/A   Clear
5:35 AM 51.8 °F 51.8 °F 100% 30.25 in 0.5 mi Calm Calm - N/A Fog Fog
5:55 AM 51.8 °F 51.8 °F 100% 30.25 in 0.8 mi Calm Calm - N/A   Mist
6:15 AM 50.0 °F 50.0 °F 100% 30.26 in 7.0 mi Calm Calm - N/A   Clear
6:35 AM 50.0 °F 50.0 °F 100% 30.26 in 0.5 mi Calm Calm - N/A Fog Fog
6:55 AM 50.0 °F 50.0 °F 100% 30.27 in 0.2 mi Calm Calm - N/A Fog Fog
7:15 AM 48.2 °F 48.2 °F 100% 30.28 in 0.2 mi Calm Calm - N/A Fog Fog
7:35 AM 50.0 °F 50.0 °F 100% 30.28 in 7.0 mi Calm Calm - N/A   Clear
7:55 AM 51.8 °F 51.8 °F 100% 30.29 in 10.0 mi Calm Calm - N/A   Clear
8:15 AM 53.6 °F 53.6 °F 100% 30.29 in 10.0 mi Calm Calm - N/A   Clear
8:35 AM 55.4 °F 55.4 °F 100% 30.30 in 10.0 mi Calm Calm - N/A   Clear
8:55 AM 59.0 °F 59.0 °F 100% 30.31 in 10.0 mi Calm Calm - N/A   Clear
9:15 AM 62.6 °F 59.0 °F 88% 30.31 in 10.0 mi Calm Calm - N/A   Clear
9:35 AM 66.2 °F 60.8 °F 83% 30.31 in 10.0 mi Calm Calm - N/A   Clear
9:55 AM 69.8 °F 60.8 °F 73% 30.32 in 10.0 mi Calm Calm - N/A   Clear
10:15 AM 71.6 °F 59.0 °F 64% 30.31 in 10.0 mi Calm Calm - N/A   Clear
10:35 AM 73.4 °F 53.6 °F 50% 30.31 in 10.0 mi East 4.6 mph - N/A   Clear
10:55 AM 73.4 °F 51.8 °F 47% 30.31 in 10.0 mi Calm Calm - N/A   Clear
11:15 AM 75.2 °F 51.8 °F 44% 30.30 in 10.0 mi Calm Calm - N/A   Clear
11:35 AM 77.0 °F 50.0 °F 39% 30.29 in 10.0 mi Calm Calm - N/A   Clear
11:55 AM 77.0 °F 48.2 °F 36% 30.28 in 10.0 mi East 6.9 mph - N/A   Clear
12:15 PM 78.8 °F 46.4 °F 32% 30.27 in 10.0 mi ESE 9.2 mph - N/A   Clear
12:35 PM 78.8 °F 44.6 °F 30% 30.26 in 10.0 mi Calm Calm - N/A   Clear
1:15 PM 78.8 °F 44.6 °F 30% 30.24 in 10.0 mi ESE 9.2 mph - N/A   Scattered Clouds
1:35 PM 78.8 °F 44.6 °F 30% 30.23 in 10.0 mi ESE 11.5 mph - N/A   Scattered Clouds
1:55 PM 78.8 °F 46.4 °F 32% 30.23 in 10.0 mi ESE 8.1 mph - N/A   Scattered Clouds
2:15 PM 78.8 °F 46.4 °F 32% 30.22 in 10.0 mi East 10.4 mph 18.4 mph N/A   Scattered Clouds
2:35 PM 78.8 °F 46.4 °F 32% 30.22 in 10.0 mi Calm Calm - N/A   Scattered Clouds
2:55 PM 75.2 °F 50.0 °F 41% 30.21 in 10.0 mi Calm Calm - N/A   Scattered Clouds
3:15 PM 78.8 °F 50.0 °F 36% 30.21 in 10.0 mi Calm Calm - N/A   Scattered Clouds
3:35 PM 78.8 °F 50.0 °F 36% 30.21 in 10.0 mi Calm Calm - N/A   Clear
3:55 PM 77.0 °F 48.2 °F 36% 30.20 in 10.0 mi Calm Calm - N/A   Clear
4:15 PM 77.0 °F 50.0 °F 39% 30.21 in 10.0 mi Calm Calm - N/A   Scattered Clouds
4:35 PM 77.0 °F 48.2 °F 36% 30.21 in 7.0 mi Calm Calm - N/A   Mostly Cloudy
4:55 PM 73.4 °F 50.0 °F 44% 30.21 in 10.0 mi Calm Calm - N/A   Mostly Cloudy
5:15 PM 71.6 °F 50.0 °F 46% 30.22 in 10.0 mi Calm Calm - N/A   Mostly Cloudy
5:35 PM 69.8 °F 51.8 °F 53% 30.22 in 10.0 mi Calm Calm - N/A   Overcast
5:55 PM 69.8 °F 51.8 °F 53% 30.23 in 10.0 mi Calm Calm - N/A   Mostly Cloudy
6:15 PM 69.8 °F 51.8 °F 53% 30.23 in 10.0 mi Calm Calm - N/A   Overcast
6:35 PM 68.0 °F 53.6 °F 60% 30.23 in 10.0 mi Calm Calm - N/A   Overcast
6:55 PM 68.0 °F 53.6 °F 60% 30.23 in 10.0 mi Calm Calm - N/A   Mostly Cloudy
7:15 PM 68.0 °F 51.8 °F 56% 30.23 in 10.0 mi Calm Calm - N/A   Scattered Clouds
7:35 PM 66.2 °F 51.8 °F 60% 30.23 in 10.0 mi Calm Calm - N/A   Clear
7:55 PM 64.4 °F 51.8 °F 64% 30.24 in 10.0 mi Calm Calm - N/A   Clear
8:15 PM 64.4 °F 51.8 °F 64% 30.24 in 10.0 mi Calm Calm - N/A   Clear
8:35 PM 62.6 °F 51.8 °F 68% 30.24 in 10.0 mi Calm Calm - N/A   Clear
8:55 PM 60.8 °F 51.8 °F 72% 30.24 in 10.0 mi Calm Calm - N/A   Clear
9:15 PM 59.0 °F 53.6 °F 82% 30.23 in 10.0 mi Calm Calm - N/A   Clear
9:35 PM 59.0 °F 53.6 °F 82% 30.24 in 10.0 mi Calm Calm - N/A   Clear
9:55 PM 59.0 °F 53.6 °F 82% 30.23 in 10.0 mi Calm Calm - N/A   Clear
10:15 PM 57.2 °F 51.8 °F 82% 30.23 in 10.0 mi Calm Calm - N/A   Clear
10:35 PM 53.6 °F 51.8 °F 94% 30.23 in 10.0 mi Calm Calm - N/A   Clear
10:55 PM 55.4 °F 53.6 °F 94% 30.22 in 10.0 mi Calm Calm - N/A   Clear
11:15 PM 55.4 °F 53.6 °F 94% 30.23 in 10.0 mi Calm Calm - N/A   Clear
11:35 PM 51.8 °F 50.0 °F 94% 30.23 in 10.0 mi Calm Calm - N/A   Clear
11:55 PM 53.6 °F 51.8 °F 94% 30.23 in 10.0 mi Calm Calm - N/A   Scattered Clouds